CW0655 Weather Reports


Display with metric or nautical units.
time (UTC)temp
F
wind
direction
speed
MPH
gust
MPH
rain 1hr
in
rain 24hr
in
rain mn
in
humidity
%
barometer
mb
20200406054138 45 169 0.0 0.0 0.00 0.00 0.00 93 1014.7
20200406053112 45 169 0.0 0.0 0.00 0.00 0.00 93 1014.7
20200406050112 45 169 0.0 0.0 0.00 0.00 0.00 92 1014.5
20200406045111 45 169 0.0 0.0 0.00 0.00 0.00 92 1014.4
20200406043111 45 169 0.0 0.0 0.00 0.00 0.00 92 1014.5
20200406041111 45 169 0.0 0.0 0.00 0.00 0.00 90 1014.4
20200406040111 46 169 0.0 0.0 0.00 0.00 0.00 90 1014.4
20200406033111 47 169 0.0 0.0 0.00 0.00 0.00 87 1014.4
20200406030110 48 169 0.0 0.0 0.00 0.00 0.00 86 1014.4
20200406020110 49 169 0.0 0.0 0.00 0.00 0.00 84 1014.3
20200406013110 49 169 0.0 0.0 0.00 0.00 0.00 83 1014.4
20200406011109 50 169 0.0 0.0 0.00 0.00 0.00 82 1014.4
20200406010109 50 169 0.0 0.0 0.00 0.00 0.00 82 1014.4
20200405235109 50 169 0.0 0.0 0.00 0.00 0.00 81 1014.3
20200405234108 51 169 0.0 0.0 0.00 0.00 0.00 81 1014.3
20200405233108 51 169 0.0 0.0 0.00 0.00 0.00 82 1014.4
20200405232109 51 169 0.0 0.0 0.00 0.00 0.00 82 1014.4
20200405222108 53 169 0.0 0.0 0.00 0.00 0.00 76 1014.7
20200405063129 40 191 0.0 0.0 0.00 0.00 0.00 90 1017.0
20200405062129 40 191 0.0 0.0 0.00 0.01 0.00 90 1017.1